Watonga, OK

2:54 PM CDT on August 19, 2017 (GMT -0500)
Watonga

Weather History for KJWG - December, 2012

Change the Weather History Date:

Monday, December 17, 2012

  Actual Average Record
Temperature  
Mean Temperature 44 °F -  
Max Temperature 56 °F 51 °F 72 °F (1980)
Min Temperature 31 °F 26 °F 4 °F (1979)
Degree Days  
Heating Degree Days 22    
Moisture  
Dew Point 36 °F    
Average Humidity 83    
Maximum Humidity 100    
Minimum Humidity 51    
Precipitation  
Precipitation 0.00 in - - ()
Sea Level Pressure  
Sea Level Pressure 29.81 in    
Wind  
Wind Speed 6 mph (WSW)    
Max Wind Speed 16 mph    
Max Gust Speed 23 mph    
Visibility 9 miles    
Events      
Averages and records for this station are not official NWS values.
T = Trace of Precipitation, MM = Missing Value Source: NWS Daily Summary

Daily Weather History Graph

Daily Weather History Graph

Search for Another Location

Airport or City:

Trip Planner

Search our weather history database for the weather conditions in past years. The results will help you decide how hot, cold, wet, or windy it might be!

Date:

Astronomy

Dec. 17, 2012 Rise Set
Actual Time 7:38 AM CST 5:22 PM CST
Civil Twilight 7:09 AM CST 5:50 PM CST
Nautical Twilight 6:37 AM CST 6:22 PM CST
Astronomical Twilight 6:06 AM CST 6:53 PM CST
Moon 10:55 AM CST (12/17) 10:36 PM CST (12/17)
Length of Visible Light 10h 40m
Length of Day
9h 43m
Waxing Crescent, 25% of the Moon is Illuminated
Dec 17
Waxing Crescent
Dec 19
First Quarter
Dec 28
Full
Jan 4
Last Quarter
Jan 11
New

Hourly Weather History & Observations

Time (CST) Temp. Windchill Dew Point Humidity Pressure Visibility Wind Dir Wind Speed Gust Speed Precip Events Conditions
12:15 AM 37.4 °F 32.8 °F 37.4 °F 100% 29.81 in 7.0 mi NW 5.8 mph - N/A   Clear
12:35 AM 38.3 °F 33.9 °F 38.3 °F 100% 29.81 in 7.0 mi NNW 5.8 mph - N/A   Clear
12:55 AM 37.4 °F 32.8 °F 37.4 °F 100% 29.80 in 7.0 mi NNW 5.8 mph - N/A   Clear
1:15 AM 36.5 °F 32.7 °F 36.5 °F 100% 29.81 in 7.0 mi NNW 4.6 mph - N/A   Clear
1:35 AM 36.7 °F 32.0 °F 36.7 °F 100% 29.81 in 7.0 mi NNW 5.8 mph - N/A   Clear
1:55 AM 36.7 °F 32.0 °F 36.7 °F 100% 29.82 in 10.0 mi NNW 5.8 mph - N/A   Clear
2:15 AM 36.5 °F 31.8 °F 36.5 °F 100% 29.83 in 7.0 mi NW 5.8 mph - N/A   Scattered Clouds
2:35 AM 36.3 °F 33.7 °F 36.3 °F 100% 29.84 in 7.0 mi NNW 3.5 mph - N/A   Scattered Clouds
2:55 AM 34.2 °F 30.0 °F 34.2 °F 100% 29.83 in 7.0 mi WNW 4.6 mph - N/A   Clear
3:15 AM 34.7 °F 31.8 °F 34.7 °F 100% 29.83 in 5.0 mi WNW 3.5 mph - N/A   Mostly Cloudy
3:35 AM 34.7 °F 31.8 °F 34.7 °F 100% 29.84 in 5.0 mi West 3.5 mph - N/A   Scattered Clouds
3:55 AM 33.8 °F - 33.8 °F 100% 29.84 in 5.0 mi Calm Calm - N/A   Clear
4:15 AM 33.3 °F 27.9 °F 33.3 °F 100% 29.84 in 7.0 mi West 5.8 mph - N/A   Clear
4:35 AM 32.5 °F 29.3 °F 32.5 °F 100% 29.83 in 7.0 mi WNW 3.5 mph - N/A   Clear
4:55 AM 32.2 °F 27.7 °F 32.2 °F 100% 29.83 in 5.0 mi West 4.6 mph - N/A   Clear
5:15 AM 31.3 °F 25.6 °F 31.3 °F 100% 29.83 in 5.0 mi West 5.8 mph - N/A   Clear
5:35 AM 31.3 °F 26.6 °F 31.3 °F 100% 29.82 in 5.0 mi SSW 4.6 mph - N/A   Clear
5:55 AM 31.5 °F 26.8 °F 31.5 °F 100% 29.82 in 5.0 mi SSW 4.6 mph - N/A   Clear
6:15 AM 31.1 °F 26.4 °F 31.1 °F 100% 29.83 in 7.0 mi SW 4.6 mph - N/A   Clear
6:35 AM 31.5 °F - 31.5 °F 100% 29.84 in 7.0 mi Calm Calm - N/A   Clear
6:55 AM 32.5 °F 29.3 °F 32.5 °F 100% 29.84 in 10.0 mi WNW 3.5 mph - N/A   Clear
7:15 AM 32.0 °F - 32.0 °F 100% 29.85 in 7.0 mi Calm Calm - N/A   Clear
7:35 AM 32.9 °F 29.8 °F 32.9 °F 100% 29.85 in 10.0 mi WSW 3.5 mph - N/A   Clear
7:55 AM 32.0 °F 28.7 °F 32.0 °F 100% 29.85 in 7.0 mi SW 3.5 mph - N/A   Clear
8:15 AM 32.5 °F 28.1 °F 32.5 °F 100% 29.86 in 7.0 mi SW 4.6 mph - N/A   Clear
8:55 AM 34.5 °F 31.6 °F 34.5 °F 100% 29.87 in 10.0 mi West 3.5 mph - N/A   Clear
9:15 AM 37.6 °F 35.1 °F 37.6 °F 100% 29.87 in 10.0 mi WSW 3.5 mph - N/A   Clear
9:35 AM 39.2 °F 35.0 °F 38.8 °F 99% 29.87 in 10.0 mi West 5.8 mph - N/A   Clear
9:55 AM 41.2 °F 36.6 °F 40.1 °F 96% 29.88 in 10.0 mi West 6.9 mph - N/A   Clear
10:15 AM 44.1 °F 38.1 °F 39.9 °F 85% 29.89 in 10.0 mi West 11.5 mph - N/A   Clear
10:35 AM 45.9 °F 40.8 °F 39.6 °F 79% 29.89 in 10.0 mi West 10.4 mph - N/A   Clear
10:55 AM 47.8 °F - 39.6 °F 73% 29.89 in 10.0 mi WNW 12.7 mph - N/A   Clear
11:15 AM 49.8 °F - 39.4 °F 67% 29.88 in 10.0 mi WNW 12.7 mph - N/A   Clear
11:35 AM 50.5 °F - 39.6 °F 66% 29.88 in 10.0 mi West 9.2 mph - N/A   Clear
11:55 AM 51.4 °F - 39.6 °F 64% 29.87 in 10.0 mi WNW 8.1 mph - N/A   Clear
12:15 PM 52.9 °F - 38.8 °F 59% 29.85 in 10.0 mi West 8.1 mph - N/A   Clear
12:35 PM 54.0 °F - 39.2 °F 57% 29.84 in 10.0 mi WSW 8.1 mph - N/A   Clear
12:55 PM 54.9 °F - 38.8 °F 55% 29.82 in 10.0 mi WSW 9.2 mph - N/A   Clear
1:15 PM 55.2 °F - 38.3 °F 53% 29.80 in 10.0 mi SW 6.9 mph - N/A   Clear
1:35 PM 55.6 °F - 38.7 °F 53% 29.80 in 10.0 mi WSW 9.2 mph - N/A   Clear
1:55 PM 55.8 °F - 38.8 °F 53% 29.78 in 10.0 mi SSW 12.7 mph - N/A   Clear
2:15 PM 55.9 °F - 38.5 °F 52% 29.78 in 10.0 mi SW 11.5 mph - N/A   Clear
2:35 PM 56.3 °F - 38.3 °F 51% 29.77 in 10.0 mi SW 13.8 mph - N/A   Clear
3:15 PM 56.1 °F - 38.5 °F 52% 29.77 in 10.0 mi SW 13.8 mph 19.6 mph N/A   Clear
3:35 PM 55.4 °F - 38.7 °F 53% 29.77 in 10.0 mi SW 16.1 mph 23.0 mph N/A   Clear
3:55 PM 55.2 °F - 39.0 °F 54% 29.77 in 10.0 mi SSW 12.7 mph - N/A   Clear
6:35 PM 47.3 °F - 38.3 °F 71% 29.77 in 10.0 mi SSW 8.1 mph - N/A   Clear
7:15 PM 46.2 °F 41.7 °F 38.3 °F 74% 29.77 in 10.0 mi SSW 9.2 mph - N/A   Clear
7:35 PM 45.1 °F 42.0 °F 38.1 °F 76% 29.77 in 10.0 mi South 5.8 mph - N/A   Clear
8:15 PM 43.0 °F 38.8 °F 37.8 °F 82% 29.76 in 10.0 mi SSW 6.9 mph - N/A   Clear
8:35 PM 43.0 °F 38.8 °F 37.8 °F 82% 29.76 in 10.0 mi SSW 6.9 mph - N/A   Clear
8:55 PM 43.0 °F 38.2 °F 37.8 °F 82% 29.76 in 10.0 mi South 8.1 mph - N/A   Clear
9:15 PM 43.3 °F 39.2 °F 37.8 °F 81% 29.76 in 10.0 mi South 6.9 mph - N/A   Clear
9:35 PM 43.3 °F 38.1 °F 37.6 °F 80% 29.75 in 10.0 mi South 9.2 mph - N/A   Clear
9:55 PM 43.2 °F 39.0 °F 37.4 °F 80% 29.75 in 10.0 mi South 6.9 mph - N/A   Clear
10:15 PM 42.6 °F 39.0 °F 36.9 °F 80% 29.74 in 10.0 mi South 5.8 mph - N/A   Clear
10:35 PM 41.9 °F 39.0 °F 36.7 °F 82% 29.74 in 10.0 mi SSE 4.6 mph - N/A   Clear
10:55 PM 44.1 °F 39.5 °F 36.5 °F 75% 29.74 in 10.0 mi SSW 8.1 mph - N/A   Clear
11:15 PM 45.5 °F 39.6 °F 36.0 °F 69% 29.73 in 10.0 mi SSW 12.7 mph - N/A   Clear
11:35 PM 44.1 °F 38.6 °F 35.6 °F 72% 29.73 in 10.0 mi SSW 10.4 mph - N/A   Clear
11:55 PM 43.2 °F 37.4 °F 35.2 °F 74% 29.73 in 10.0 mi SSW 10.4 mph - N/A   Clear